User: anonymous   Login
Location: Antoign�
(47.0844°N, 0.1131°W)
Time: 19:26:46
(UTC+00:00)
Language:

Helios 1A Rocket - Orbit

View from above orbital plane
View from above orbital plane
View from above satellite
View from above satellite

Ground track
Ground track

The orbit data is extracted from the following two-line orbital elements,

1 23608U 95033D   21136.69155587  .00000103  00000-0  14473-4 0  9995
2 23608  98.2940 175.2231 0015834 217.6429 142.3684 14.97672885401310
Epoch (UTC): 16 May 2021 16:35:50
Eccentricity: 0.0015834
inclination: 98.2940°
perigee height: 563 km
apogee height: 585 km
right ascension of ascending node: 175.2231°
argument of perigee: 217.6429°
revolutions per day: 14.97672885
mean anomaly at epoch: 142.3684°
orbit number at epoch: 40131

The dashed part of the orbit path shows where the satellite is in the earth's shadow,  

DLR